Погода в Полчин-Здруе

Польша     53°46′03″N   16°05′56″E
темп.,
°C
ветер,
м/с
пор.,
м/с
влажн.,
%
обл.,
%
осадки,
мм/ч
давл.,
гПа
погр.,
м
8 марта, пн
пн801:00−2ссз227252 0.0 101825
04:00−2сз357043 0.0 1019125
07:00−2ссз367121 0.0 1020173
10:00+2с57500 0.0 10221540
13:00+3ссз564714 0.0 10221621
16:00+1с55540 0.0 10231224
19:00−2ссв23746 0.0 102354
22:00−3св117619 0.0 102321
9 марта, вт
вт901:00−2юв117659 0.0 102339
04:00−2ююв1276100 0.0 102280
07:00−2ююв2375100 0.0 1022182
10:000ююв335491 0.0 1022795
13:00+2ю333863 0.0 10221292
16:00+2ююз22370 0.0 10201352
19:00−1юв11490 0.0 102121
22:00−1ююв225364 0.0 102221
10 марта, ср
ср1001:00−2ю225771 0.0 102125
04:00−2юз11550 0.0 102121
07:00−2ю11534 0.0 102121
10:00+2ююв22400 0.0 1022534
13:00+4ю33320 0.0 10221174
16:00+4ю35410 0.0 10201210
19:000ююв476044 0.0 1020125
22:000ююв61358100 0.0 1019344
11 марта, чт
чт1101:000ю81554100 0.0 1017506
04:00+1ююв81563100 0.0 1013444
07:00+1ююв91674100 0.1 1009547
10:00+2ю111796100 1.9 1006883
13:00+3ююз101797100 7.1 1002791
16:00+5ююз81694100 3.6 999621
19:00+7юз7158998 4.1 997597
22:00+6зюз7158474 0.3 999999
12 марта, пт
пт1201:00+4зюз8168787 0.3 1000764
04:00+4зюз8158796 0.2 1000973
07:00+3зюз8149198 1.9 10021038
10:00+6зюз9147085 0.3 10041511
13:00+7зюз10146274 0.8 10061702
16:00+6зюз8136499 0.3 10061458
19:00+4юз6137797 0.3 1006482
22:00+4юз71482100 0.0 1005601